METLOCID,DATE_TIME,AVG_SOILT0CM,STDDEV_SOILT0CM,MIN_SOILT0CM,MAX_SOILT0CM,N_SOILT0CM,AVG_SOILT5CM,STDDEV_SOILT5CM,MIN_SOILT5CM,MAX_SOILT5CM,N_SOILT5CM,AVG_SOILT10CM,STDDEV_SOILT10CM,MIN_SOILT10CM,MAX_SOILT10CM,N_SOILT10CM,N_COMMENTS
HOEM,12/18/93,,,,,0,,,,,0,-4.234444444,0.036829475,-4.29,-4.18,27,0
HOEM,12/19/93,,,,,0,,,,,0,-4.442777778,0.121289369,-4.6,-4.15,144,0
HOEM,12/20/93,,,,,0,,,,,0,-3.841666667,0.094624765,-4.13,-3.78,144,0
HOEM,12/21/93,,,,,0,,,,,0,-4.040694444,0.188878371,-4.32,-3.78,144,0
HOEM,12/22/93,,,,,0,,,,,0,-4.545972222,0.129659691,-4.71,-4.33,144,0
HOEM,12/23/93,,,,,0,,,,,0,-4.582361111,0.11603584,-4.7,-4.3,144,0
HOEM,12/24/93,,,,,0,,,,,0,-4.158402778,0.119396286,-4.3,-3.79,144,0
HOEM,12/25/93,,,,,0,,,,,0,-3.466111111,0.146936603,-3.78,-3.11,144,0
HOEM,12/26/93,,,,,0,,,,,0,-2.790972222,0.103878085,-3.1,-2.6,144,0
HOEM,12/27/93,,,,,0,,,,,0,-2.477361111,0.073016773,-2.6,-2.26,144,0
HOEM,12/28/93,,,,,0,,,,,0,-2.138055556,0.039512374,-2.25,-2.08,144,0
HOEM,12/29/93,,,,,0,,,,,0,-2.369513889,0.102924576,-2.51,-2.18,144,0
HOEM,12/30/93,,,,,0,,,,,0,-2.095833333,0.099196069,-2.31,-1.87,144,0
HOEM,12/31/93,,,,,0,,,,,0,-1.740486111,0.059123314,-1.87,-1.6,144,0
HOEM,1/1/94,,,,,0,,,,,0,-1.518194444,0.070320473,-1.59,-1.32,144,0
HOEM,1/2/94,,,,,0,,,,,0,-1.194722222,0.074156746,-1.31,-0.99,144,0
HOEM,1/3/94,,,,,0,,,,,0,-0.859444444,0.040568991,-0.99,-0.78,144,0
HOEM,1/4/94,,,,,0,,,,,0,-0.712847222,0.035373397,-0.78,-0.61,144,0
HOEM,1/5/94,,,,,0,,,,,0,-0.509097222,0.04549515,-0.61,-0.39,144,0
HOEM,1/6/94,,,,,0,,,,,0,-0.314722222,0.028504556,-0.39,-0.24,144,0
HOEM,1/7/94,,,,,0,,,,,0,-0.215763889,0.021921024,-0.25,-0.16,144,0
HOEM,1/8/94,,,,,0,,,,,0,-0.165763889,0.033062345,-0.22,-0.1,144,0
HOEM,1/9/94,,,,,0,,,,,0,-0.041180556,0.028271821,-0.1,0.04,144,0
HOEM,1/10/94,,,,,0,,,,,0,0.102847222,0.040893229,0.04,0.22,144,0
HOEM,1/11/94,,,,,0,,,,,0,0.179027778,0.051145199,0.1,0.25,144,0
HOEM,1/12/94,,,,,0,,,,,0,0.184305556,0.032979179,0.13,0.25,144,0
HOEM,1/13/94,,,,,0,,,,,0,0.240972222,0.045146528,0.17,0.31,144,0
HOEM,1/14/94,,,,,0,,,,,0,0.200138889,0.072700036,0.11,0.32,144,0
HOEM,1/15/94,,,,,0,,,,,0,0.065833333,0.066862765,-0.02,0.17,144,0
HOEM,1/16/94,1.42,0,1.42,1.42,1,3,0,3,3,1,0.171865672,0.307906264,0.02,2.47,134,0
HOEM,1/17/94,4.54875,5.364050808,-0.41,13.05,8,3.26875,2.391069321,0.41,6.67,8,1.8175,0.940269718,0.63,3.09,8,0
HOEM,1/18/94,5.895,7.381956767,-1.88,16.97,8,4.25125,2.85151307,1.09,8.27,8,2.43125,1.120630403,1.07,3.93,8,0
HOEM,1/19/94,3.6725,5.654630846,-2.2,13.97,8,3.10375,1.795652985,1.05,5.96,8,2.1925,0.719419409,1.19,3.3,8,0
HOEM,1/20/94,2.13625,4.408666587,-4.1,7.77,8,1.58125,2.054691061,-1.3,4.17,8,1.0525,0.781952684,-0.04,2,8,0
HOEM,1/21/94,3.96125,5.696097505,-1.3,14.21,8,2.63125,2.151759662,-0.03,6.1,8,1.46875,0.80747291,0.39,2.59,8,0
HOEM,1/22/94,2.7625,5.785688624,-4.48,11.87,8,1.7225,2.300737459,-1.1,5.12,8,0.99875,0.854658453,-0.1,2.1,8,0
HOEM,1/23/94,3.48625,5.698578614,-2.81,12.49,8,2.17375,2.317658532,-0.58,5.66,8,1.11375,0.891306224,0.01,2.35,8,0
HOEM,1/24/94,2.145,4.977563948,-3.69,9.11,8,1.39375,2.323168634,-1.53,4.41,8,0.78375,0.901537377,-0.42,1.87,8,0
HOEM,1/25/94,2.5725,5.785029325,-2.85,12.52,8,1.63,2.364475176,-1.12,5.21,8,0.8075,0.90613386,-0.4,1.98,8,0
HOEM,1/26/94,1.55625,4.433937101,-3.82,8.23,8,0.78,1.999242714,-1.8,3.47,8,0.3725,0.769206456,-0.68,1.2,8,0
HOEM,1/27/94,2.61375,6.455203742,-2.33,14.58,8,1.54375,2.285194193,-0.88,5.65,8,0.63625,0.82961157,-0.44,1.92,8,0
HOEM,1/28/94,0.295,3.593629284,-4.79,5.59,8,0.03625,1.545277945,-2.18,1.88,8,-0.08625,0.57178761,-0.88,0.52,8,0
HOEM,1/29/94,-2.89625,1.220935677,-5.29,-1.55,8,-1.73,0.859135778,-2.89,-0.04,8,-0.9125,0.601943282,-1.53,0.17,8,0
HOEM,1/30/94,-3.165,3.909263723,-7.42,3.29,8,-3.01,1.764669131,-5.11,-0.46,8,-2.17625,0.619468378,-2.97,-1.38,8,0
HOEM,1/31/94,-1.38625,5.720751543,-6.95,8.65,8,-1.955,2.256640993,-4.3,1.78,8,-1.87125,0.827223195,-2.88,-0.64,8,0
HOEM,2/1/94,-1.9775,4.812750179,-8.13,5.38,8,-2.365,2.301260524,-4.97,0.71,8,-2.1,0.83534424,-3.1,-0.83,8,0
HOEM,2/2/94,-0.38,3.949372464,-4.69,6.94,8,-0.875,1.853637351,-3.09,1.71,8,-1.30625,0.719621676,-2.18,-0.26,8,0
HOEM,2/3/94,-2.20625,2.251119959,-4.54,1.28,8,-1.64625,0.975894279,-2.87,-0.29,8,-1.41625,0.493527753,-2,-0.5,8,0
HOEM,2/4/94,-1.93375,4.392210434,-6.12,6.51,8,-1.835,1.834339118,-3.8,1.1,8,-1.8075,0.646634143,-2.6,-0.91,8,0
HOEM,2/5/94,-2.945,5.155723588,-10.21,4.07,8,-3.145,2.517402289,-6.25,0.07,8,-2.68625,0.905868762,-3.86,-1.59,8,0
HOEM,2/6/94,-2.125,0.191535152,-2.34,-1.71,8,-2.01875,0.253345473,-2.18,-1.47,8,-1.97125,0.177638276,-2.14,-1.66,8,0
HOEM,2/7/94,-2.6825,0.224165118,-2.93,-2.3,8,-2.54125,0.19059587,-2.76,-2.25,8,-2.35875,0.130102981,-2.53,-2.18,8,0
HOEM,2/8/94,-3.4775,0.174335473,-3.68,-3.14,8,-3.19375,0.179279311,-3.35,-2.85,8,-2.805,0.146091948,-2.95,-2.58,8,0
HOEM,2/9/94,-3.92125,2.09796117,-6.41,-0.45,8,-3.61875,1.08541549,-5.07,-2.1,8,-3.255,0.362845894,-3.77,-2.79,8,0
HOEM,2/10/94,-6.08375,1.885159618,-8.71,-3.39,8,-4.675,0.771529094,-5.55,-3.56,8,-3.67125,0.351463776,-4.05,-3,8,0
HOEM,2/11/94,-8.9575,4.66567634,-14.6,-3.6,8,-7.45875,2.280359856,-10.27,-4.69,8,-5.48,0.793779386,-6.46,-4.33,8,0
HOEM,2/12/94,-6.71375,1.553787423,-8.7,-4.24,8,-5.67125,0.677757595,-6.57,-4.68,8,-4.78375,0.236639418,-5.11,-4.5,8,0
HOEM,2/13/94,-9.83375,2.545331511,-14.14,-6.94,8,-8.07375,1.105892497,-9.76,-6.94,8,-5.95625,0.522109389,-6.53,-4.91,8,0
HOEM,2/14/94,-8.5925,4.637332207,-13.39,0.55,8,-7.43125,1.64531749,-9.23,-4.56,8,-6.06125,0.476278355,-6.62,-5.38,8,0
HOEM,2/15/94,-11.14875,5.768127791,-16.71,-0.83,8,-9.48625,2.27366248,-12.06,-5.51,8,-7.1875,0.689466668,-8.14,-6.32,8,0
HOEM,2/16/94,-6.49375,3.980713997,-11.31,-0.72,8,-7.0575,2.515203769,-10.58,-3.89,8,-6.535,1.056260249,-7.58,-5.04,8,0
HOEM,2/17/94,-9.29625,5.408744078,-15.38,1.17,8,-7.91875,1.821156913,-9.71,-4.58,8,-6.42875,0.555117426,-7.1,-5.58,8,0
HOEM,2/18/94,-9.46125,5.066217066,-15.02,0.56,8,-9.0675,2.065441841,-11.55,-5.55,8,-7.5025,0.598134003,-8.14,-6.61,8,0
HOEM,2/19/94,-10.1275,3.634268447,-14.85,-5.42,8,-9.315,1.934129557,-11.47,-6.83,8,-7.735,0.671820554,-8.51,-6.78,8,1
HOEM,2/20/94,-14.74,3.388876763,-19.6,-9.23,8,-11.43125,1.611019531,-13.7,-8.78,8,-8.48125,0.855560593,-9.38,-6.98,8,0
HOEM,2/21/94,-18.5775,4.098985066,-23.21,-12.41,8,-15.4,1.894020667,-17.73,-12.79,8,-11.28,0.72514038,-12.21,-10.12,8,0
HOEM,2/22/94,-13.59,3.7889501,-19.41,-7.59,8,-12.94375,2.041812483,-15.51,-10.1,8,-10.77875,0.748339829,-11.52,-9.71,8,0
HOEM,2/23/94,-13.96625,4.864268958,-20.22,-3.86,8,-12.37,1.437537577,-14.23,-9.65,8,-10.16625,0.390089275,-10.67,-9.67,8,0
HOEM,2/24/94,-19.08625,6.236525904,-24.86,-6.77,8,-16.52125,2.308743861,-19.37,-12.63,8,-12.5375,0.861141269,-13.74,-11.23,8,0
HOEM,2/25/94,-20.54125,6.312996657,-26.53,-8.1,8,-18.00375,2.479388966,-21.02,-13.9,8,-13.90875,0.843198629,-15.12,-12.97,8,0
HOEM,2/26/94,-21.415,5.95976989,-26.88,-9.6,8,-18.85625,2.344756689,-21.69,-14.97,8,-14.76125,0.792039636,-15.9,-13.83,8,0
HOEM,2/27/94,-22.77,5.89271463,-28.23,-10.93,8,-19.9625,2.297593461,-22.79,-16.2,8,-15.65625,0.781407841,-16.8,-14.8,8,0
HOEM,2/28/94,-22.3725,6.089522031,-28.03,-10.23,8,-19.96125,2.561971548,-22.76,-15.77,8,-16.06875,0.862014874,-17.17,-14.9,8,0
HOEM,3/1/94,-24.6175,5.590979342,-29.89,-13.33,8,-21.47125,2.16847173,-24.21,-17.89,8,-16.9625,0.755432705,-18.07,-16.03,8,0
HOEM,3/2/94,-25.64125,5.411267181,-30.84,-15.02,8,-22.5675,2.223888165,-25.3,-19.05,8,-17.96,0.756080117,-19.07,-17.11,8,0
HOEM,3/3/94,-25.86375,5.064791457,-30.19,-15.55,8,-22.90375,2.018910155,-25.2,-19.54,8,-18.45625,0.673560635,-19.41,-17.62,8,0
HOEM,3/4/94,-26.5025,4.85734716,-31.71,-17.3,8,-23.67125,2.111569744,-26.29,-20.5,8,-19.1475,0.727966836,-20.18,-18.33,8,0
HOEM,3/5/94,-23.03375,5.516093176,-29.3,-15.96,8,-21.54875,3.03413173,-24.78,-17.7,8,-18.47375,1.180628616,-19.73,-16.63,8,0
HOEM,3/6/94,-24.88625,2.938677727,-29.41,-21.51,8,-21.85625,1.510817541,-24.28,-19.85,8,-18.08125,0.770017393,-19.08,-16.81,8,0
HOEM,3/7/94,-27.56125,3.387866743,-31.05,-20.56,8,-23.765,1.287411578,-25.42,-22.12,8,-19.2425,0.629279634,-19.91,-18.13,8,0
HOEM,3/8/94,-29.35625,3.848383473,-33.73,-22.51,8,-26.20875,1.502620925,-28.12,-24.08,8,-21.16875,0.550309978,-21.94,-20.35,8,0
HOEM,3/9/94,-20.4075,2.302959276,-24.38,-17.84,8,-20.42875,2.120124238,-23.88,-18.1,8,-18.8175,1.260733913,-20.65,-17.11,8,0
HOEM,3/10/94,-17.115,4.584308641,-24.56,-13.09,8,-17.1,2.736452344,-21.17,-14.17,8,-16.3575,1.249991429,-17.86,-14.58,8,0
HOEM,3/11/94,-15.83875,2.090204621,-17.8,-12.65,8,-15.44,1.084264069,-16.66,-13.77,8,-14.7675,0.461542445,-15.29,-14.06,8,0
HOEM,3/12/94,-16.7075,2.185424117,-20.18,-13.32,8,-15.755,0.91720071,-16.69,-14.2,8,-14.61375,0.307707537,-14.99,-14.1,8,0
HOEM,3/13/94,-21.8525,2.631972373,-24.96,-18.12,8,-19.6875,1.442237844,-21.59,-18,8,-16.70875,0.809293122,-17.65,-15.21,8,0
HOEM,3/14/94,-21.89,3.274097477,-25.78,-17.69,8,-20.22375,1.774131075,-22.63,-17.93,8,-17.51375,0.691353486,-18.51,-16.65,8,0
HOEM,3/15/94,-21.81875,1.818000766,-25.25,-19.75,8,-19.81125,1.186428464,-21.6,-18.42,8,-17.18625,0.530846696,-18.15,-16.69,8,0
HOEM,3/16/94,-24.8625,3.256013119,-29.99,-20.83,8,-21.88375,1.885250552,-25.01,-19.76,8,-18.41375,0.769042772,-19.76,-17.62,8,0
HOEM,3/17/94,-30.27375,1.114321542,-31.5,-28.48,8,-26.60375,0.476862888,-27.16,-25.92,8,-21.47625,0.489400143,-21.94,-20.44,8,0
HOEM,3/18/94,-24.1975,1.861502849,-27.83,-21.49,8,-23.39625,1.602524237,-26.97,-22.24,8,-20.7125,0.869264878,-22.23,-20.02,8,0
HOEM,3/19/94,-21.7325,3.423585214,-28.35,-18.85,8,-20.23625,1.42823505,-23.18,-18.93,8,-18.51375,0.560712238,-19.48,-17.9,8,0
HOEM,3/20/94,-27.45875,3.014761007,-31.61,-24.38,8,-24.83125,1.527064761,-26.99,-23.09,8,-20.8725,0.6240364,-21.72,-19.83,8,0
HOEM,3/21/94,-31.20125,1.123749305,-32.66,-29.47,8,-27.19625,1.130877504,-28.1,-24.73,8,-22.265,0.877594114,-23.05,-20.66,8,0
HOEM,3/22/94,-32.705,1.713000709,-35.55,-30.39,8,-28.89125,0.888408489,-30.51,-27.68,8,-23.80125,0.420490785,-24.58,-23.38,8,0
HOEM,3/23/94,-35.16875,1.297871197,-36.81,-33.54,8,-31.30875,0.625378457,-32.17,-30.51,8,-25.66375,0.329238841,-25.99,-25,8,0
HOEM,3/24/94,-34.5125,0.690377743,-35.19,-33.47,8,-31.025,0.30528675,-31.37,-30.51,8,-25.94125,0.103570197,-26.1,-25.79,8,0
HOEM,3/25/94,-32.76125,2.302690585,-35.76,-30.23,8,-30.37375,1.409061871,-31.89,-28.59,8,-26.03,0.522083737,-26.53,-25.18,8,0
HOEM,3/26/94,-28.45875,2.539214938,-30.93,-23.15,8,-27.3075,1.075516487,-28.27,-25.27,8,-24.4475,0.422940388,-25,-23.69,8,0
HOEM,3/27/94,-22.2225,3.473342359,-27.76,-17.97,8,-21.69375,1.61818185,-24.19,-19.65,8,-21,0.90354856,-22.79,-20.11,8,0
HOEM,3/28/94,-18.4025,2.830349549,-24.6,-15.82,8,-19.695,2.603360466,-24.83,-17.31,8,-19.7675,1.407010509,-21.75,-18.17,8,0
HOEM,3/29/94,-21.00125,4.395466618,-28.8,-16.9,8,-19.2125,2.209755966,-23.5,-17.44,8,-18.235,0.668003422,-19.65,-17.74,8,0
HOEM,3/30/94,-33.215,1.522066265,-35.71,-30.86,8,-28.39375,1.704975387,-30.66,-25.37,8,-23.115,1.457963354,-24.9,-20.66,8,0
HOEM,3/31/94,-28.6325,4.235313279,-35.81,-24.54,8,-27.62,2.794402568,-31.22,-24.36,8,-24.51875,1.119099606,-25.7,-22.79,8,0
HOEM,4/1/94,-22.50125,3.980457395,-26.43,-15.92,8,-22.815,2.060284308,-24.7,-18.7,8,-21.82125,0.723037986,-22.48,-20.24,8,0
HOEM,4/2/94,-16.47125,1.602287985,-19.44,-14.88,8,-17.15875,0.584207338,-18.18,-16.56,8,-18.07125,0.641169412,-19.35,-17.57,8,0
HOEM,4/3/94,-21.97,1.749269235,-24.13,-19.37,8,-20.50875,0.90059405,-21.88,-19.16,8,-19.07875,0.547473091,-19.71,-18.06,8,0
HOEM,4/4/94,-20.61625,4.070327953,-24.81,-15.16,8,-20.77375,2.093158499,-22.36,-16.97,8,-19.75125,0.660182605,-20.26,-18.38,8,0
HOEM,4/5/94,-22.14,4.997902417,-28.27,-16.13,8,-19.8875,3.100685408,-24.4,-16.77,8,-18.505,1.165602236,-20.64,-17.57,8,0
HOEM,4/6/94,-27.04625,1.483797613,-28.53,-24.75,8,-24.615,0.621656773,-25.42,-23.74,8,-21.6,0.324433572,-21.98,-21.01,8,0
HOEM,4/7/94,-19.01625,7.464674785,-28.91,-10.16,8,-20.96375,4.676998236,-25.94,-14.54,8,-20.8175,1.989326878,-22.57,-17.56,8,0
HOEM,4/8/94,-14.815,1.658329624,-17.13,-12.83,8,-15.53375,1.05193614,-16.9,-13.75,8,-16.64125,0.302297748,-17.06,-16.16,8,0
HOEM,4/9/94,-18.055,2.550635775,-22.31,-14.83,8,-16.93625,1.478086963,-19.4,-15.07,8,-16.61,0.577432742,-17.61,-16.03,8,0
HOEM,4/10/94,-21.86375,3.490149147,-25.94,-15.6,8,-20.8175,1.667759404,-22.72,-18.51,8,-19.07875,0.656819991,-20.09,-18.16,8,0
HOEM,4/11/94,-16.32875,4.237062451,-23.53,-12.65,8,-16.40875,1.790542117,-19.61,-14.67,8,-16.91625,0.846976766,-18.51,-16.04,8,0
HOEM,4/12/94,-22.59125,2.379078078,-25.58,-19.46,8,-21.1925,1.114678044,-22.48,-19.71,8,-19.20875,0.561005157,-19.84,-18.16,8,0
HOEM,4/13/94,-20.025,1.593181902,-22.73,-18.29,8,-19.49625,0.802316957,-20.69,-18.7,8,-18.66875,0.378622975,-19.24,-18.25,8,0
HOEM,4/14/94,-21.87875,0.988598395,-23.11,-20.65,8,-20.7775,0.449245399,-21.33,-20.22,8,-19.22125,0.264544757,-19.51,-18.71,8,0
HOEM,4/15/94,-26.83625,2.442381376,-29.05,-22.4,8,-23.82875,1.98233223,-25.8,-20.43,8,-20.69875,1.170743811,-22.11,-19.13,8,0
HOEM,4/16/94,-30.32875,2.895885936,-33.52,-24.6,8,-26.75125,2.03199717,-29.26,-23.66,8,-22.83625,1.019494798,-24.28,-21.59,8,0
HOEM,4/17/94,-24.4525,7.699593217,-33.71,-16.1,8,-24.9825,4.965891518,-29.97,-18.15,8,-23.42875,2.013032095,-25.22,-19.98,8,0
HOEM,4/18/94,-13.96,1.52184099,-15.27,-11.11,8,-15.5825,0.964079872,-17.45,-14.35,8,-17.3825,0.991027605,-19.24,-16.69,8,0
HOEM,4/19/94,-14.51625,0.694734019,-15.84,-13.77,8,-15.47125,0.480488962,-16.11,-14.88,8,-16.415,0.291743527,-16.74,-15.97,8,0
HOEM,4/20/94,-20.12,3.792025467,-25.73,-14.97,8,-18.12,2.418754107,-21.89,-15.11,8,-17.0575,1.067369932,-18.83,-15.92,8,0
HOEM,4/21/94,-26.655,1.611964197,-28.74,-24.75,8,-24.17625,0.778752436,-25.3,-23.12,8,-20.9825,0.728868987,-21.62,-19.55,8,0
HOEM,4/22/94,-26.165,1.025740151,-27.5,-24.65,8,-24.13625,0.597469366,-24.81,-23.4,8,-21.56,0.302654919,-22,-21.28,8,0
HOEM,4/23/94,-28.50875,1.561075065,-30.23,-26.31,8,-25.84125,1.009065161,-27.27,-24.72,8,-22.62625,0.523311912,-23.47,-22.13,8,0
HOEM,4/24/94,-30.81875,0.635529869,-31.43,-29.73,8,-27.955,0.485327577,-28.55,-27.27,8,-24.1975,0.382164886,-24.74,-23.67,8,0
HOEM,4/25/94,-27.29,2.032436961,-29.61,-22.75,8,-26.0075,1.104183603,-28.09,-24.43,8,-23.71625,0.505114909,-24.8,-23.21,8,0
HOEM,4/26/94,-27.62625,5.789209019,-33.66,-19.44,8,-26.79875,3.051563709,-29.93,-21.67,8,-24.34625,1.00980815,-25.55,-22.51,8,0
HOEM,4/27/94,-26.605,2.879930555,-28.65,-20.13,8,-24.46375,2.097515111,-26.5,-20.72,8,-22.475,0.827146558,-23.52,-21.28,8,0
HOEM,4/28/94,-26.845,2.251742183,-30.11,-23.75,8,-25.835,1.187229668,-27.22,-23.72,8,-23.69125,0.375326049,-24.11,-22.93,8,0
HOEM,4/29/94,-24.745,0.636957052,-25.65,-23.88,8,-23.8175,0.340325474,-24.27,-23.43,8,-22.4175,0.112599163,-22.61,-22.3,8,0
HOEM,4/30/94,-29.82375,3.272940738,-34.14,-25.47,8,-26.77625,2.169048096,-29.87,-24.22,8,-23.595,1.045753317,-25.27,-22.52,8,0
HOEM,5/1/94,-36.955,1.240380126,-38.31,-34.78,8,-32.895,1.079126631,-34,-30.82,8,-27.50375,1.008094915,-28.5,-25.8,8,0
HOEM,5/2/94,-30.57,2.55844819,-33.12,-26.17,8,-29.70375,1.577755526,-32.04,-26.48,8,-27.0525,0.69481241,-28.2,-25.87,8,0
HOEM,5/3/94,-31.31625,2.087479256,-33.52,-27.49,8,-29.195,1.20611537,-30.64,-27.09,8,-26.215,0.57186412,-26.88,-25.32,8,0
HOEM,5/4/94,-31.83375,3.839047268,-35.65,-25.32,8,-29.12625,2.415526784,-32.11,-25.92,8,-26.04875,0.947167771,-27.57,-25.01,8,0
HOEM,5/5/94,-33.51875,2.323491446,-36.76,-30.7,8,-31.2925,1.08810123,-32.87,-29.79,8,-27.61625,0.504520635,-28.46,-27.03,8,0
HOEM,5/6/94,-21.72375,2.161744914,-24.86,-18.14,8,-23.4975,2.446430344,-28.55,-21.14,8,-24.1825,1.971842865,-27.73,-22.58,8,0
HOEM,5/7/94,-21.50375,0.548242321,-22.49,-20.86,8,-21.885,0.495493982,-22.61,-21.3,8,-21.98625,0.381947547,-22.49,-21.48,8,0
HOEM,5/8/94,-26.97375,3.784970041,-31.89,-21.64,8,-24.4875,2.474029391,-28.09,-21.54,8,-22.555,1.106164545,-24.36,-21.47,8,0
HOEM,5/9/94,-32.6675,3.508588442,-35.58,-24.33,8,-30.21125,1.278329686,-31.87,-28.23,8,-26.32375,0.859932514,-27.39,-24.93,8,0
HOEM,5/10/94,-30.0275,1.786654895,-32.13,-26.33,8,-28.12625,1.279731417,-29.55,-25.8,8,-25.79,0.407641299,-26.41,-25.24,8,0
HOEM,5/11/94,-29.69125,0.733765971,-30.89,-28.55,8,-28.3025,0.418867521,-28.78,-27.67,8,-26.04625,0.209484913,-26.31,-25.77,8,0
HOEM,5/12/94,-32.65625,3.186717691,-36.73,-28.61,8,-29.775,1.936543312,-32.78,-27.68,8,-26.49,0.824101242,-27.95,-25.75,8,0
HOEM,5/13/94,-38.4225,0.922941725,-39.27,-36.9,8,-34.5875,0.900757618,-35.55,-33.19,8,-29.555,0.756401254,-30.47,-28.41,8,0
HOEM,5/14/94,-41.205,1.064223392,-42.21,-39.4,8,-37.0375,0.908102417,-38.13,-35.71,8,-31.51,0.640914525,-32.4,-30.65,8,0
HOEM,5/15/94,-35.2825,3.442506354,-41.06,-32.11,8,-34.26,2.566348156,-37.96,-31.37,8,-31.12,1.243118199,-32.53,-29.37,8,0
HOEM,5/16/94,-32.485,0.978219958,-34.04,-31.46,8,-31.09875,0.499126022,-31.91,-30.45,8,-28.8025,0.198692152,-29.07,-28.44,8,0
HOEM,5/17/94,-34.9225,2.454155368,-38.19,-32.31,8,-32.1025,1.516591573,-34.46,-30.62,8,-28.83125,0.614455334,-29.94,-28.35,8,0
HOEM,5/18/94,-39.9775,1.033299155,-41.34,-38.46,8,-36.185,0.903975347,-37.49,-34.88,8,-31.27,0.655830989,-32.22,-30.3,8,0
HOEM,5/19/94,-40.015,1.10003896,-41.38,-37.75,8,-37.1675,0.422839044,-37.61,-36.37,8,-32.55875,0.103983172,-32.69,-32.42,8,0
HOEM,5/20/94,-28.3825,4.245194762,-35.11,-24.84,8,-29.6225,3.599594223,-34.93,-25.68,8,-29.315,2.116229801,-32.11,-26.5,8,0
HOEM,5/21/94,-24.19625,1.491125534,-25.99,-21.72,8,-24.86625,1.002324976,-25.87,-23.26,8,-25.39375,0.617250528,-26.1,-24.29,8,0
HOEM,5/22/94,-25.72625,2.127936207,-29.63,-23.26,8,-25.2875,1.398200374,-27.54,-23.46,8,-24.74125,0.606027757,-25.52,-24.12,8,0
HOEM,5/23/94,-24.01875,6.404818359,-33.78,-17.91,8,-23.27,3.053283946,-28.7,-20.22,8,-23.45125,1.058886713,-24.95,-22.07,8,0
HOEM,5/24/94,-37.22625,1.886447436,-39.81,-34.71,8,-32.94375,1.820980407,-35.42,-30.19,8,-28.3425,1.468709346,-30.3,-26.02,8,0
HOEM,5/25/94,-40.53875,0.327782049,-40.96,-40.01,8,-36.8125,0.416781889,-37.29,-35.97,8,-31.7775,0.588672841,-32.44,-30.75,8,0
HOEM,5/26/94,-27.43375,6.411130806,-38.71,-20.2,8,-29.64875,4.855613651,-36.73,-23.47,8,-29.415,2.50916036,-32.44,-25.79,8,0
HOEM,5/27/94,-30.0425,3.544999496,-33.47,-22.97,8,-27.88375,2.876033665,-30.72,-23.03,8,-26.3425,1.251190861,-28,-24.85,8,0
HOEM,5/28/94,-30.84,4.211179,-37.26,-25.9,8,-29.06875,2.07191035,-32.66,-26.83,8,-27.28125,0.713310942,-28.48,-26.43,8,0
HOEM,5/29/94,-38.3175,1.491286597,-39.72,-35.06,8,-35.175,0.75706199,-35.81,-33.8,8,-30.78125,0.836411339,-31.55,-29.24,8,0
HOEM,5/30/94,-31.2675,1.223563297,-34.12,-30.35,8,-30.9825,1.19665904,-33.52,-29.79,8,-29.49,0.863084171,-30.98,-28.52,8,0
HOEM,5/31/94,-33.43125,1.945760501,-35.52,-30.41,8,-31.335,1.324041432,-33.08,-29.71,8,-28.89625,0.591751335,-29.82,-28.28,8,0
HOEM,6/1/94,-33.65125,2.228538519,-35.89,-29.59,8,-32.525,1.033122866,-33.5,-30.31,8,-30.04625,0.263543843,-30.34,-29.49,8,0
HOEM,6/2/94,-32.465,2.147716395,-36.1,-29.85,8,-30.775,1.096370636,-32.87,-29.73,8,-28.8625,0.319228982,-29.53,-28.61,8,0
HOEM,6/3/94,-38.82,1.365534955,-40.41,-36.4,8,-35.435,1.26330632,-37.04,-33.47,8,-31.29625,0.893435384,-32.51,-29.98,8,0
HOEM,6/4/94,-36.93625,2.348701389,-40.04,-32.89,8,-35.5225,1.257841121,-37.01,-33.88,8,-32.3325,0.489540601,-32.82,-31.63,8,0
HOEM,6/5/94,-27.26625,3.398570866,-32.51,-22.61,8,-27.8125,1.759632673,-30.53,-25.45,8,-28.06625,1.310669812,-30.81,-27.1,8,0
HOEM,6/6/94,-24.5325,4.285216281,-32.35,-19.18,8,-26.2825,2.971862091,-30.74,-22.46,8,-26.83625,1.419315101,-28.57,-24.82,8,0
HOEM,6/7/94,-17.105,0.747815867,-18.11,-16.09,8,-19.5075,0.978406138,-21.33,-18.41,8,-22.33375,1.035456249,-24.07,-21.27,8,0
HOEM,6/8/94,-18.3125,0.634096658,-19.33,-17.64,8,-19.50375,0.331401246,-20.02,-19.12,8,-21.26875,0.177879373,-21.52,-21.01,8,0
HOEM,6/9/94,-19.13125,1.780476963,-21.89,-17.13,8,-19.5675,0.957209486,-21.26,-18.59,8,-20.87125,0.283520596,-21.42,-20.58,8,0
HOEM,6/10/94,-19.12375,3.255039774,-23.34,-15.15,8,-20.47625,1.940890352,-22.55,-17.93,8,-21.6225,0.758452372,-22.36,-20.31,8,0
HOEM,6/11/94,-23.7625,2.467432153,-27.68,-21.34,8,-22.28125,1.689517577,-25.17,-19.38,8,-21.8175,0.865757307,-23.14,-20.33,8,0
HOEM,6/12/94,-29.19,2.944447559,-33.19,-25.14,8,-27.16375,1.328188213,-29.12,-25.52,8,-25.05,0.689575439,-25.95,-23.76,8,0
HOEM,6/13/94,-32.09625,1.620704763,-33.71,-29.3,8,-29.665,0.725475214,-30.68,-28.74,8,-26.86625,0.516580446,-27.44,-25.85,8,0
HOEM,6/14/94,-37.02125,0.850973182,-37.78,-35.26,8,-33.415,1.10567368,-34.43,-31.37,8,-29.2875,0.908385538,-30.36,-27.84,8,0
HOEM,6/15/94,-36.70125,4.3658036,-39.68,-27.25,8,-34.9025,1.544055421,-36.18,-31.28,8,-31.1375,0.430672232,-31.7,-30.55,8,0
HOEM,6/16/94,-25.44625,2.158755842,-27.59,-21.19,8,-26.62375,1.680994072,-28.53,-24.11,8,-27.16375,1.354294097,-29.34,-25.29,8,0
HOEM,6/17/94,-22.41,1.952909917,-24.6,-19.71,8,-23.615,1.289196871,-24.89,-21.47,8,-24.47875,0.690971108,-25.19,-23.27,8,0
HOEM,6/18/94,-18.23625,2.933870858,-23.02,-14.39,8,-19.52125,1.473096229,-21.47,-17.52,8,-21.53875,0.912757791,-22.94,-20.62,8,0
HOEM,6/19/94,-29.675,2.365610764,-32.62,-25.53,8,-26.80125,2.343114152,-29.65,-22.82,8,-24.4575,1.606689142,-26.5,-21.95,8,0
HOEM,6/20/94,-29.32125,4.773397824,-32.82,-21.02,8,-29.03875,2.367641608,-30.6,-24.14,8,-27.255,0.654850037,-27.8,-25.84,8,0
HOEM,6/21/94,-26.23375,3.653925238,-30.74,-21.41,8,-25.1375,2.179637912,-28.16,-22.84,8,-24.66625,0.735603494,-25.97,-23.89,8,0
HOEM,6/22/94,-33.18,1.477401193,-35.47,-31.22,8,-30.44625,1.222525927,-32.24,-28.66,8,-27.485,0.830266739,-28.67,-26.26,8,0
HOEM,6/23/94,-36.25,0.181422947,-36.59,-36.08,8,-33.5325,0.301886923,-33.76,-32.85,8,-29.8925,0.455466794,-30.36,-29.05,8,0
HOEM,6/24/94,-36.675,0.334664011,-37.26,-36.1,8,-34.20875,0.28246049,-34.53,-33.76,8,-30.7675,0.246330208,-31.08,-30.42,8,0
HOEM,6/25/94,-26.25,7.706983846,-36.9,-18.02,8,-28.265,5.402470334,-34.48,-22.28,8,-28.55,2.717898348,-31.17,-25.03,8,0
HOEM,6/26/94,-25.125,3.809570654,-28.2,-17.17,8,-24.48125,2.280873501,-27,-21.2,8,-24.6325,0.770672248,-25.74,-23.56,8,0
HOEM,6/27/94,-26.48875,1.199159676,-28.53,-24.51,8,-26.48375,0.598448888,-27.32,-25.48,8,-25.88,0.18547237,-26.12,-25.52,8,0
HOEM,6/28/94,-27.7275,2.317047074,-30.49,-23.69,8,-26.52125,1.450659333,-28.65,-24.67,8,-25.57625,0.569333884,-26.5,-24.92,8,0
HOEM,6/29/94,-33.58125,2.289144803,-36.56,-30.23,8,-30.81125,1.635485402,-33.26,-28.68,8,-27.93625,0.917324331,-29.39,-26.81,8,0
HOEM,6/30/94,-37.5475,0.55863993,-38.28,-36.65,8,-34.5375,0.589085247,-35.34,-33.59,8,-30.67625,0.564343804,-31.4,-29.78,8,0
HOEM,7/1/94,-33.09875,6.850281407,-38.62,-21.54,8,-33.2525,3.643800018,-35.81,-26.04,8,-31.1725,1.166628231,-31.98,-28.57,8,0
HOEM,7/2/94,-26.0525,2.650685895,-30.74,-22.87,8,-26.26875,1.524396251,-28.59,-24.46,8,-26.7125,0.49635097,-27.42,-25.84,8,0
HOEM,7/3/94,-30.1675,2.513487901,-32.71,-24.83,8,-28.8725,1.436421645,-30.64,-26.22,8,-27.2675,0.894694681,-28.28,-25.82,8,0
HOEM,7/4/94,-30.1725,4.036185434,-33.95,-22.87,8,-28.5025,2.422470699,-31.37,-25.25,8,-27.235,0.901997783,-28.57,-26.14,8,0
HOEM,7/5/94,-34.87375,0.244419867,-35.21,-34.53,8,-32.65125,0.353530661,-33.05,-31.89,8,-29.7325,0.432096219,-30.2,-28.93,8,0
HOEM,7/6/94,-35.92375,0.52301154,-36.62,-35.32,8,-33.75875,0.437507143,-34.26,-33.24,8,-30.74375,0.321333716,-31.17,-30.32,8,0
HOEM,7/7/94,-33.69625,0.862834821,-34.96,-32.48,8,-32.66125,0.633796666,-33.66,-31.76,8,-30.605,0.316498702,-31.15,-30.1,8,0
HOEM,7/8/94,-35.45375,0.385224888,-35.86,-34.76,8,-33.3725,0.498590871,-33.9,-32.4,8,-30.7075,0.34615232,-31.13,-30.12,8,0
HOEM,7/9/94,-35.3125,1.24308085,-36.4,-32.98,8,-33.85625,0.47683293,-34.43,-32.82,8,-31.32125,0.110897314,-31.51,-31.19,8,0
HOEM,7/10/94,-38.1275,2.727383623,-41.59,-33.5,8,-35.00875,1.867744534,-37.78,-32.4,8,-31.68125,0.84309697,-33.07,-30.73,8,0